Regional Weather Roundup
Issued by NWS

Home | Current Version | Previous Version | Text Only | Print | Product List | Glossary On
Versions: 1 2 3 4 5 6 7 8 9 10 11 12 13 14 15 16 17 18 19 20 21 22 23 24 25 26 27 28 29 30 31 32 33 34 35 36 37 38 39 40 41 42 43 44 45 46 47 48 49 50
000
ASUS44 KFWD 040810
RWRTX
NORTH TEXAS HOURLY WEATHER ROUNDUP
NATIONAL WEATHER SERVICE FORT WORTH TX
300 AM CDT MON MAY 04 2015

NOTE: "FAIR" INDICATES FEW OR NO CLOUDS BELOW 12,000 FEET WITH NO
SIGNIFICANT WEATHER AND/OR OBSTRUCTIONS TO VISIBILITY.

TXZ118-119-040900-
DALLAS/FORT WORTH METROPLEX

CITY           SKY/WX    TMP DP  RH WIND       PRES   REMARKS
DFW AIRPORT    MOCLDY    68  61  78 S15       29.98S
DALLAS LOVE    MOCLDY    70  61  73 S14       30.00R
FTW MEACHAM    PTCLDY    69  61  75 S14G21    29.98S
DAL-EXECUTIVE  PTCLDY    67  61  81 S9G17     30.00R
FTW-ALLIANCE   MOCLDY    66  60  81 S10       29.98R
FTW-NAS-JRB    PTCLDY    69  61  75 S14       29.99R
FTW-SPINKS     PTCLDY    67  60  78 S13G18    30.00S
ARLINGTON      PTCLDY    68  60  75 S10       30.00R
GRAND PRAIRIE  PTCLDY    68  62  82 S10       30.01S
ADDISON        MOCLDY    70  61  74 S14G20    30.01S
MESQUITE       MOCLDY    66  62  86 S9        30.01S
LANCASTER      PTCLDY    66  60  82 S8        30.02R
$$

TXZ091>094-102>105-117-120-121-131>134-040900-
NORTH CENTRAL TEXAS

CITY           SKY/WX    TMP DP  RH WIND       PRES   REMARKS
SHRMAN/DENISON PTCLDY    66  61  83 SE9       30.01R
GAINESVILLE    PTCLDY    60  57  91 SE5       30.00S
BOWIE          PTCLDY    64  57  78 S6        29.98S
BRIDGEPORT     MOCLDY    66  60  79 S6        29.99R
DECATUR        PTCLDY    66  57  72 S10       29.98S
DENTON         PTCLDY    67  60  78 S13       29.98S
MCKINNEY       MOCLDY    67  61  81 S12       30.00R
GREENVILLE     PTCLDY    66  59  77 S9        30.02R
ROCKWALL       MOCLDY    67  62  84 S10       30.00R
TERRELL        MOCLDY    70  62  76 S7        30.02S
WAXAHACHIE     PTCLDY    65  63  91 S9        30.02R
CLEBURNE       PTCLDY    66  64  94 S12       30.01S
GRANBURY         N/A     69  61  75 S12G18    29.99S
$$

TXZ083>090-098>101-113>116-127>130-139>142-154-155-040900-
WESTERN NORTH TEXAS

CITY           SKY/WX    TMP DP  RH WIND       PRES   REMARKS
WICHITA FALLS  PTCLDY    62  57  83 SE7       29.95S
WF-KICKAPOO    PTCLDY    64  58  81 SE6       29.95F
VERNON         PTCLDY    64  54  70 SE3       29.93F
ABILENE        PTCLDY    66  56  70 S10       29.97S
ABILENE-DYESS  PTCLDY    64  56  75 S10       29.94F
BRECKENRIDGE   PTCLDY    69  58  68 S13       29.96S
GRAHAM         PTCLDY    67  59  76 SE6       29.95S
MINERAL WELLS  PTCLDY    62  57  83 SE9       29.97R
STEPHENVILLE   PTCLDY    64  59  85 S6        30.02R
COMANCHE       CLEAR     63  63 100 S8        30.00S
BROWNWOOD      PTCLDY    64  61  88 S9G16     29.99S
COLEMAN        MOCLDY    64  59  85 S6        29.98F
BRADY          CLEAR     64  63  94 SE9       29.99S
$$

TXZ143>147-156>162-174-175-040900-
CENTRAL TEXAS

CITY           SKY/WX    TMP DP  RH WIND       PRES   REMARKS
WACO           CLEAR     66  62  87 S12       30.01S
WACO-MCGREGOR  MOCLDY    64  57  77 S7        30.03S
HILLSBORO      PTCLDY    65  60  82 S10       30.01S
CORSICANA      PTCLDY    67  61  81 S9        30.03S
MEXIA          CLEAR     64  61  92 S6        30.03R
HEARNE         CLEAR     65  62  91 SE5       30.03F
CAMERON        CLEAR     66  63  89 S6        30.02F
TEMPLE         PTCLDY    64  57  77 S12       30.01S
KILLEEN        CLEAR     65  62  90 S10       30.01S
KILLEEN-SKYLRK CLOUDY    66  59  77 S12       30.00S
FORT HOOD      CLOUDY    67  63  87 VRB3      30.00F
GATESVILLE     CLEAR     66  63  88 S7        30.03S
HAMILTON       CLOUDY    67  61  81 S13       30.02S
LAMPASAS       MOCLDY    68  64  86 S7        30.01S
$$

TXZ095>097-106>112-122>126-135>138-148>153-164>167-040900-
EAST TEXAS

CITY           SKY/WX    TMP DP  RH WIND       PRES   REMARKS
PARIS          MOCLDY    63  54  72 MISG      30.04R
SULPHUR SPRNGS PTCLDY    67  58  74 S6        30.05R
MOUNT PLEASANT PTCLDY    64  58  79 S7        30.05S
GILMER           N/A    N/A N/A N/A MISG        N/A
MINEOLA        MOCLDY    66  61  82 S5        30.04S
TYLER          MOCLDY    66  59  78 S6        30.04S
LONGVIEW       CLEAR     64  58  80 S6        30.04S
MARSHALL       CLEAR     60  57  92 CALM      30.08R
ATHENS         PTCLDY    64  59  82 S6        30.02F
PALESTINE      CLEAR     65  59  82 SE3       30.05S
JACKSONVILLE   PTCLDY    65  59  81 S6        30.07S
HENDERSON      CLEAR     64  59  84 CALM      30.06S
NACOGDOCHES      N/A     59  55  88 CALM      30.05S
LUFKIN         CLEAR     63  58  83 SE3       30.05S
$$

SUPPLEMENTAL OBSERVATIONS (CENTRAL)

CITY           SKY/WX    TMP DP  RH WIND       PRES   REMARKS
PAT MAYSE LAKE   N/A     64  55  72 SE12        N/A
GREENVILLE       N/A     64  57  77 S6          N/A
MCGREGOR         N/A     66  61  82 S13         N/A
TEMPLE           N/A     64  59  82 S7          N/A
$$

SUPPLEMENTAL OBSERVATIONS (WEST)

CITY           SKY/WX    TMP DP  RH WIND       PRES   REMARKS
POSSUM KINGDOM   N/A     66  59  77 S9          N/A
GRANBURY         N/A     68  61  77 S14         N/A
HAMBY            N/A     64  55  72 S9          N/A
COLORADO BEND    N/A     66  61  82 SW9         N/A
$$

SUPPLEMENTAL OBSERVATIONS (EAST)

CITY           SKY/WX    TMP DP  RH WIND       PRES   REMARKS
TEXARKANA        N/A     55  54  94 CALM        N/A
LINDEN           N/A     61  57  88 SW1         N/A
GILMER           N/A     64  57  77 S5          N/A
HENDERSON        N/A     63  57  82 S3          N/A
N SABINE NF      N/A     55  52  88 MISG        N/A
$$

SUPPLEMENTAL OBSERVATIONS ARE A COLLECTION OF AUTOMATED INSTRUMENTS
THAT ARE MAINTAINED BY A VARIETY OF FEDERAL AND STATE AGENCIES.
CERTAIN ELEMENTS...SUCH AS HUMIDITY VALUES AND SUSTAINED WIND
SPEEDS...MAY BE APPROXIMATED.




USA.gov is the U.S. government's official web portal to all federal, state and local government web resources and services.